This is the latest recevied weather packets stored in our database for station/object K1ABC. If no packets are shown the sender has not sent any weather packets the latest 10 day(s).
| Time | Temp. | Humidity | Pressure | Rain* | Wind** | Luminosity | Snow |
|---|---|---|---|---|---|---|---|
| 1777712258 | 7.78° C | 70% | 1010.5 hPa | 0 mm | - | - | - |
| 1777708703 | 7.22° C | 73% | 1011.2 hPa | 0 mm | - | - | - |
| 1777707888 | 7.22° C | 73% | 1011.4 hPa | 0 mm | - | - | - |
| 1777707193 | 7.22° C | 73% | 1011.5 hPa | 0 mm | - | - | - |
| 1777706623 | 7.22° C | 73% | 1011.5 hPa | 0 mm | - | - | - |
| 1777706059 | 7.22° C | 71% | 1011.5 hPa | 0 mm | - | - | - |
| 1777705862 | 7.22° C | 71% | 1011.5 hPa | 0 mm | - | - | - |
| 1777705167 | 6.67° C | 71% | 1011.5 hPa | 0 mm | - | - | - |
| 1777704599 | 6.67° C | 71% | 1011.5 hPa | 0 mm | - | - | - |
| 1777702907 | 8.89° C | 65% | 1011.5 hPa | 0 mm | - | - | - |
| 1777702586 | 8.89° C | 66% | 1011.6 hPa | 0 mm | - | - | - |
| 1777700548 | 8.33° C | 65% | 1011.7 hPa | 0 mm | - | - | - |
| 1777698991 | 8.89° C | 59% | 1011.8 hPa | 0 mm | - | - | - |
| 1777697045 | 9.44° C | 57% | 1011.7 hPa | 0 mm | - | - | - |
| 1777696713 | 8.89° C | 56% | 1011.7 hPa | 0 mm | - | - | - |
| 1777696017 | 8.89° C | 54% | 1011.7 hPa | 0 mm | - | - | - |
| 1777695813 | 8.89° C | 55% | 1011.6 hPa | 0 mm | - | - | - |
| 1777694003 | 8.33° C | 51% | 1011.2 hPa | 0 mm | - | - | - |
| 1777693802 | 8.33° C | 51% | 1011.3 hPa | 0 mm | - | - | - |
| 1777692098 | 8.33° C | 47% | 1011.3 hPa | 0 mm | - | - | - |
| 1777689047 | 9.44° C | 48% | 1011.1 hPa | 0 mm | - | - | - |
| 1777688089 | 9.44° C | 46% | 1011.1 hPa | 0 mm | - | - | - |
| 1777685390 | 10° C | 44% | 1011.1 hPa | 0 mm | - | - | - |
| 1777685195 | 10° C | 44% | 1011.2 hPa | 0 mm | - | - | - |
| 1777684134 | 10.56° C | 44% | 1011 hPa | 0 mm | - | - | - |
* Rain latest hour (hover to see other rain measurements)
** Current wind speed in m/s (hover to see current wind gust speed)